Location: Home
(42.5358°N, 72.7383°W)
Time: 20:09:51
(UTC-05:00)

Vanguard 2 - Pass Details

Date: 06 December 2021
Orbit: 553 x 2936 km, 32.9° (Epoch: 20 January)

Event Time Altitude Azimuth Distance (km) Brightness Sun altitude
Rises 11:29:00 0° 213° (SSW) 2,707 11.2 24.8°
Reaches altitude 10° 11:32:13 10° 182° (S) 1,863 11.5 24.9°
Maximum altitude 11:34:07 13° 154° (SSE) 1,757 10.8 24.9°
Drops below altitude 10° 11:36:11 10° 127° (SE) 2,058 10.4 24.9°
Sets 11:40:10 0° 99° (E) 3,300 10.9 24.9°
